WAT2918 SEGU-SGAS

Flight info

Callsign WAT2918
Flight time 4h 12m
Altitude 37000
Route EVRED2A EVRED UL780 TRU UV1 JCL UL550 ASOXI/N0468F390 UM548 ISAGU ISAGU
Aircraft A339/H-SADE1E2E3GHIJ3J5M1P2RWXY/LB2D1

Departure

Time 2026-04-23 12:56
Airport José Joaquín de Olmedo International Airport (SEGU)

Arrival

Time 2026-04-23 17:08
Airport Silvio Pettirossi International Airport (SGAS)
Time Latitude Longitude Altitude Speed Heading
2026-04-23 12:34 -2.14918 -79.88342 38 ft 0 kts 301°
2026-04-23 12:48 -2.14918 -79.88341 38 ft 1 kts 301°
2026-04-23 12:49 -2.14926 -79.88328 38 ft 2 kts 301°
2026-04-23 12:49 -2.14933 -79.88316 38 ft 2 kts 301°
2026-04-23 12:49 -2.14944 -79.88304 37 ft 2 kts 337°
2026-04-23 12:49 -2.14959 -79.88301 37 ft 2 kts
2026-04-23 12:50 -2.14970 -79.88304 37 ft 0 kts 28°
2026-04-23 12:50 -2.14975 -79.88306 37 ft 0 kts 29°
2026-04-23 12:51 -2.14973 -79.88306 37 ft 0 kts 29°
2026-04-23 12:51 -2.14963 -79.88300 37 ft 2 kts 29°
2026-04-23 12:51 -2.14944 -79.88289 37 ft 3 kts 29°
2026-04-23 12:52 -2.14916 -79.88274 37 ft 5 kts 29°
2026-04-23 12:52 -2.14879 -79.88253 37 ft 6 kts 29°
2026-04-23 12:52 -2.14836 -79.88229 38 ft 7 kts 29°
2026-04-23 12:52 -2.14800 -79.88193 37 ft 7 kts 73°
2026-04-23 12:53 -2.14802 -79.88145 37 ft 8 kts 105°
2026-04-23 12:53 -2.14817 -79.88082 35 ft 10 kts 89°
2026-04-23 12:53 -2.14779 -79.88013 35 ft 12 kts 40°
2026-04-23 12:53 -2.14709 -79.87967 36 ft 11 kts 30°
2026-04-23 12:54 -2.14655 -79.87904 35 ft 12 kts 68°
2026-04-23 12:54 -2.14633 -79.87816 34 ft 13 kts 100°
2026-04-23 12:54 -2.14707 -79.87776 34 ft 12 kts 198°
2026-04-23 12:54 -2.14768 -79.87818 33 ft 9 kts 204°
2026-04-23 12:55 -2.14826 -79.87843 34 ft 2 kts 206°
2026-04-23 12:55 -2.14890 -79.87878 34 ft 39 kts 211°
2026-04-23 12:55 -2.15361 -79.88151 34 ft 113 kts 210°
2026-04-23 12:55 -2.16243 -79.88660 54 ft 171 kts 210°
2026-04-23 12:56 -2.17353 -79.89298 485 ft 189 kts 209°
2026-04-23 12:56 -2.18446 -79.89915 1287 ft 177 kts 209°
2026-04-23 12:56 -2.19522 -79.90520 1850 ft 179 kts 209°
2026-04-23 12:56 -2.20745 -79.90918 2185 ft 194 kts 175°
2026-04-23 12:57 -2.22118 -79.90657 2515 ft 211 kts 165°
2026-04-23 12:57 -2.23573 -79.90295 2879 ft 228 kts 165°
2026-04-23 12:57 -2.25179 -79.89905 3262 ft 246 kts 166°
2026-04-23 12:57 -2.26926 -79.89500 3662 ft 263 kts 166°
2026-04-23 12:58 -2.28757 -79.89091 4278 ft 270 kts 167°
2026-04-23 12:58 -2.30596 -79.88687 5012 ft 271 kts 167°
2026-04-23 12:58 -2.32449 -79.88286 5726 ft 272 kts 167°
2026-04-23 12:58 -2.34313 -79.87884 6366 ft 275 kts 167°
2026-04-23 12:59 -2.36196 -79.87479 6993 ft 278 kts 167°
2026-04-23 12:59 -2.38095 -79.87070 7631 ft 281 kts 167°
2026-04-23 12:59 -2.40030 -79.86653 8252 ft 283 kts 168°
2026-04-23 12:59 -2.41974 -79.86235 8857 ft 285 kts 168°
2026-04-23 13:00 -2.43924 -79.85817 9432 ft 289 kts 168°
2026-04-23 13:00 -2.45911 -79.85390 9981 ft 291 kts 168°
2026-04-23 13:00 -2.47905 -79.84963 10448 ft 299 kts 168°
2026-04-23 13:00 -2.50013 -79.84512 10699 ft 314 kts 168°
2026-04-23 13:01 -2.52223 -79.84038 11007 ft 330 kts 168°
2026-04-23 13:01 -2.54528 -79.83543 11310 ft 345 kts 168°
2026-04-23 13:01 -2.56947 -79.83026 11571 ft 358 kts 168°
2026-04-23 13:01 -2.59393 -79.82501 12075 ft 363 kts 168°
2026-04-23 13:02 -2.61885 -79.81966 12669 ft 365 kts 168°
2026-04-23 13:02 -2.64377 -79.81430 13261 ft 368 kts 168°
2026-04-23 13:02 -2.66920 -79.80882 13858 ft 371 kts 168°
2026-04-23 13:02 -2.69499 -79.80330 14376 ft 375 kts 168°
2026-04-23 13:03 -2.72074 -79.79776 14887 ft 378 kts 168°
2026-04-23 13:03 -2.74664 -79.79221 15426 ft 381 kts 168°
2026-04-23 13:03 -2.77272 -79.78661 15915 ft 385 kts 168°
2026-04-23 13:03 -2.79910 -79.78140 16427 ft 388 kts 171°
2026-04-23 13:04 -2.82628 -79.77751 16908 ft 392 kts 173°
2026-04-23 13:04 -2.85340 -79.77401 17379 ft 395 kts 173°
2026-04-23 13:04 -2.88084 -79.77053 17873 ft 399 kts 173°
2026-04-23 13:04 -2.90855 -79.76706 18423 ft 400 kts 172°
2026-04-23 13:05 -2.93645 -79.76352 18943 ft 402 kts 172°
2026-04-23 13:05 -2.96462 -79.75994 19458 ft 404 kts 171°
2026-04-23 13:05 -2.99252 -79.75639 19988 ft 406 kts 171°
2026-04-23 13:05 -3.02076 -79.75277 20485 ft 407 kts 171°
2026-04-23 13:06 -3.07777 -79.74546 21404 ft 412 kts 170°
2026-04-23 13:06 -3.10620 -79.74183 21859 ft 414 kts 169°
2026-04-23 13:06 -3.13499 -79.73812 22306 ft 415 kts 169°
2026-04-23 13:07 -3.16389 -79.73441 22716 ft 418 kts 169°
2026-04-23 13:07 -3.19303 -79.73065 23119 ft 421 kts 169°
2026-04-23 13:07 -3.22227 -79.72689 23499 ft 424 kts 169°
2026-04-23 13:07 -3.25151 -79.72314 23869 ft 427 kts 169°
2026-04-23 13:08 -3.28114 -79.71935 24253 ft 429 kts 169°
2026-04-23 13:08 -3.31129 -79.71547 24632 ft 432 kts 169°
2026-04-23 13:08 -3.34108 -79.71164 24985 ft 434 kts 169°
2026-04-23 13:08 -3.37153 -79.70773 25344 ft 437 kts 169°
2026-04-23 13:09 -3.40161 -79.70389 25685 ft 440 kts 169°
2026-04-23 13:09 -3.43214 -79.69997 26030 ft 442 kts 169°
2026-04-23 13:09 -3.46322 -79.69601 26385 ft 445 kts 169°
2026-04-23 13:09 -3.49410 -79.69203 26716 ft 447 kts 169°
2026-04-23 13:10 -3.52507 -79.68806 27051 ft 450 kts 169°
2026-04-23 13:10 -3.55610 -79.68410 27379 ft 452 kts 169°
2026-04-23 13:10 -3.58760 -79.68006 27714 ft 454 kts 169°
2026-04-23 13:10 -3.61926 -79.67600 28040 ft 456 kts 169°
2026-04-23 13:11 -3.65080 -79.67197 28363 ft 458 kts 169°
2026-04-23 13:11 -3.68265 -79.66788 28690 ft 460 kts 169°
2026-04-23 13:11 -3.71451 -79.66379 29011 ft 462 kts 169°
2026-04-23 13:11 -3.74663 -79.65967 29316 ft 464 kts 169°
2026-04-23 13:12 -3.77901 -79.65551 29600 ft 466 kts 169°
2026-04-23 13:12 -3.81109 -79.65140 29871 ft 469 kts 169°
2026-04-23 13:12 -3.84390 -79.64719 30173 ft 471 kts 168°
2026-04-23 13:12 -3.87665 -79.64299 30482 ft 473 kts 169°
2026-04-23 13:13 -3.90922 -79.63882 30855 ft 473 kts 168°
2026-04-23 13:13 -3.94212 -79.63462 31272 ft 472 kts 168°
2026-04-23 13:13 -3.97430 -79.63051 31668 ft 471 kts 168°
2026-04-23 13:13 -4.00717 -79.62628 32036 ft 471 kts 168°
2026-04-23 13:14 -4.03948 -79.62215 32393 ft 470 kts 168°
2026-04-23 13:14 -4.07238 -79.61791 32750 ft 470 kts 168°
2026-04-23 13:14 -4.10484 -79.61375 33135 ft 470 kts 168°
2026-04-23 13:14 -4.13740 -79.60958 33542 ft 469 kts 168°
2026-04-23 13:15 -4.16992 -79.60541 33994 ft 467 kts 168°
2026-04-23 13:15 -4.20196 -79.60129 34424 ft 466 kts 167°
2026-04-23 13:15 -4.23410 -79.59716 34822 ft 464 kts 168°
2026-04-23 13:15 -4.26643 -79.59301 35207 ft 463 kts 167°
2026-04-23 13:16 -4.29842 -79.58890 35582 ft 462 kts 167°
2026-04-23 13:16 -4.33042 -79.58479 35885 ft 462 kts 167°
2026-04-23 13:16 -4.36242 -79.58067 36093 ft 464 kts 167°
2026-04-23 13:16 -4.39473 -79.57651 36295 ft 465 kts 167°
2026-04-23 13:17 -4.42714 -79.57234 36477 ft 467 kts 167°
2026-04-23 13:17 -4.45967 -79.56813 36674 ft 468 kts 167°
2026-04-23 13:17 -4.49173 -79.56400 36894 ft 469 kts 167°
2026-04-23 13:17 -4.52457 -79.55984 37105 ft 470 kts 168°
2026-04-23 13:18 -4.55723 -79.55577 37224 ft 472 kts 168°
2026-04-23 13:18 -4.62246 -79.54769 37266 ft 472 kts 168°
2026-04-23 13:19 -4.68771 -79.53960 37318 ft 472 kts 167°
2026-04-23 13:19 -4.75315 -79.53142 37385 ft 472 kts 168°
2026-04-23 13:20 -4.81890 -79.52322 37427 ft 472 kts 167°
2026-04-23 13:20 -4.88419 -79.51505 37449 ft 472 kts 168°
2026-04-23 13:21 -4.94964 -79.50689 37468 ft 472 kts 168°
2026-04-23 13:21 -5.01527 -79.49868 37486 ft 472 kts 168°
2026-04-23 13:22 -5.08038 -79.49056 37461 ft 471 kts 167°
2026-04-23 13:22 -5.14579 -79.48238 37427 ft 471 kts 167°
2026-04-23 13:23 -5.21134 -79.47417 37396 ft 472 kts 168°
2026-04-23 13:23 -5.27647 -79.46604 37368 ft 472 kts 167°
2026-04-23 13:24 -5.34225 -79.45781 37374 ft 473 kts 167°
2026-04-23 13:24 -5.40755 -79.44965 37386 ft 473 kts 167°
2026-04-23 13:25 -5.47349 -79.44139 37403 ft 473 kts 167°
2026-04-23 13:25 -5.53878 -79.43321 37416 ft 472 kts 167°
2026-04-23 13:26 -5.60435 -79.42500 37402 ft 473 kts 168°
2026-04-23 13:26 -5.66991 -79.41679 37392 ft 473 kts 167°
2026-04-23 13:27 -5.73543 -79.40859 37372 ft 474 kts 167°
2026-04-23 13:27 -5.80125 -79.40035 37351 ft 473 kts 168°
2026-04-23 13:28 -5.86656 -79.39217 37330 ft 473 kts 168°
2026-04-23 13:28 -5.93215 -79.38394 37303 ft 473 kts 168°
2026-04-23 13:29 -5.99806 -79.37568 37283 ft 474 kts 167°
2026-04-23 13:29 -6.06388 -79.36744 37291 ft 474 kts 168°
2026-04-23 13:30 -6.12969 -79.35918 37331 ft 474 kts 167°
2026-04-23 13:30 -6.19488 -79.35098 37368 ft 475 kts 168°
2026-04-23 13:31 -6.26095 -79.34269 37408 ft 474 kts 168°
2026-04-23 13:31 -6.32684 -79.33443 37394 ft 474 kts 167°
2026-04-23 13:32 -6.39262 -79.32616 37335 ft 475 kts 168°
2026-04-23 13:32 -6.45864 -79.31788 37309 ft 476 kts 168°
2026-04-23 13:33 -6.52461 -79.30959 37261 ft 476 kts 168°
2026-04-23 13:33 -6.59032 -79.30134 37225 ft 476 kts 168°
2026-04-23 13:34 -6.65684 -79.29298 37209 ft 476 kts 168°
2026-04-23 13:34 -6.72273 -79.28471 37205 ft 476 kts 168°
2026-04-23 13:35 -6.78847 -79.27641 37193 ft 477 kts 168°
2026-04-23 13:35 -6.85481 -79.26807 37203 ft 477 kts 168°
2026-04-23 13:36 -6.92090 -79.25977 37203 ft 476 kts 168°
2026-04-23 13:36 -6.98686 -79.25146 37184 ft 477 kts 168°
2026-04-23 13:37 -7.05322 -79.24309 37198 ft 478 kts 168°
2026-04-23 13:37 -7.11942 -79.23479 37215 ft 478 kts 168°
2026-04-23 13:38 -7.18579 -79.22641 37185 ft 479 kts 168°
2026-04-23 13:38 -7.25213 -79.21804 37158 ft 479 kts 168°
2026-04-23 13:39 -7.31881 -79.20966 37179 ft 478 kts 168°
2026-04-23 13:39 -7.38526 -79.20126 37157 ft 485 kts 168°
2026-04-23 13:40 -7.45333 -79.19265 37164 ft 495 kts 168°
2026-04-23 13:40 -7.52229 -79.18394 37150 ft 500 kts 168°
2026-04-23 13:41 -7.59203 -79.17516 37097 ft 502 kts 168°
2026-04-23 13:41 -7.66116 -79.16646 37087 ft 502 kts 168°
2026-04-23 13:42 -7.73076 -79.15768 37050 ft 502 kts 168°
2026-04-23 13:42 -7.80053 -79.14885 37013 ft 503 kts 168°
2026-04-23 13:43 -7.87024 -79.14002 37016 ft 504 kts 168°
2026-04-23 13:43 -7.94020 -79.13119 37002 ft 504 kts 168°
2026-04-23 13:44 -8.00958 -79.12130 36992 ft 502 kts 165°
2026-04-23 13:44 -8.07775 -79.10434 36988 ft 498 kts 158°
2026-04-23 13:45 -8.14223 -79.07997 36985 ft 493 kts 151°
2026-04-23 13:45 -8.20362 -79.04859 36983 ft 490 kts 147°
2026-04-23 13:46 -8.26380 -79.01502 36980 ft 491 kts 146°
2026-04-23 13:46 -8.32364 -78.98161 36976 ft 491 kts 146°
2026-04-23 13:47 -8.38404 -78.94796 36983 ft 491 kts 146°
2026-04-23 13:47 -8.44442 -78.91436 37004 ft 491 kts 146°
2026-04-23 13:48 -8.50470 -78.88077 37006 ft 492 kts 147°
2026-04-23 13:48 -8.56525 -78.84706 37000 ft 493 kts 146°
2026-04-23 13:49 -8.62600 -78.81323 37024 ft 492 kts 146°
2026-04-23 13:49 -8.68638 -78.77956 37031 ft 493 kts 147°
2026-04-23 13:50 -8.74673 -78.74593 37026 ft 493 kts 147°
2026-04-23 13:50 -8.80710 -78.71225 37037 ft 493 kts 147°
2026-04-23 13:51 -8.86760 -78.67851 37034 ft 493 kts 147°
2026-04-23 13:51 -8.92838 -78.64457 37049 ft 493 kts 147°
2026-04-23 13:52 -8.98831 -78.61109 37057 ft 492 kts 146°
2026-04-23 13:52 -9.04884 -78.57725 37052 ft 494 kts 146°
2026-04-23 13:53 -9.10973 -78.54321 37045 ft 493 kts 146°
2026-04-23 13:53 -9.17080 -78.51073 37039 ft 495 kts 149°
2026-04-23 13:54 -9.23347 -78.48025 37038 ft 495 kts 150°
2026-04-23 13:54 -9.29677 -78.44956 37037 ft 496 kts 150°
2026-04-23 13:55 -9.35940 -78.41916 37044 ft 496 kts 150°
2026-04-23 13:55 -9.42225 -78.38860 37051 ft 497 kts 149°
2026-04-23 13:56 -9.48527 -78.35796 37057 ft 495 kts 149°
2026-04-23 13:56 -9.54754 -78.32763 37055 ft 495 kts 149°
2026-04-23 13:57 -9.60986 -78.29730 37056 ft 496 kts 149°
2026-04-23 13:57 -9.67237 -78.26683 37045 ft 495 kts 149°
2026-04-23 13:58 -9.73521 -78.23621 37041 ft 496 kts 149°
2026-04-23 13:58 -9.79742 -78.20587 37036 ft 496 kts 149°
2026-04-23 13:59 -9.85989 -78.17541 37051 ft 495 kts 149°
2026-04-23 13:59 -9.92306 -78.14459 37036 ft 496 kts 149°
2026-04-23 14:00 -9.97508 -78.11917 37034 ft 495 kts 149°
2026-04-23 14:00 -10.04802 -78.08353 37019 ft 495 kts 149°
2026-04-23 14:01 -10.11041 -78.05302 37020 ft 495 kts 149°
2026-04-23 14:01 -10.17284 -78.02249 37029 ft 497 kts 149°
2026-04-23 14:02 -10.23590 -77.99170 37033 ft 497 kts 150°
2026-04-23 14:02 -10.29848 -77.96118 37042 ft 498 kts 150°
2026-04-23 14:03 -10.36132 -77.93052 37072 ft 498 kts 150°
2026-04-23 14:03 -10.42394 -77.89992 37067 ft 498 kts 150°
2026-04-23 14:04 -10.48709 -77.86906 37064 ft 498 kts 150°
2026-04-23 14:04 -10.54986 -77.83836 37046 ft 499 kts 150°
2026-04-23 14:05 -10.61280 -77.80758 37062 ft 499 kts 150°
2026-04-23 14:05 -10.67580 -77.77673 37056 ft 499 kts 150°
2026-04-23 14:06 -10.73893 -77.74583 37054 ft 501 kts 150°
2026-04-23 14:06 -10.80156 -77.71513 37060 ft 501 kts 150°
2026-04-23 14:07 -10.86462 -77.68422 37067 ft 501 kts 150°
2026-04-23 14:07 -10.95920 -77.63784 37067 ft 501 kts 150°
2026-04-23 14:08 -11.02261 -77.60672 37092 ft 501 kts 150°
2026-04-23 14:08 -11.08525 -77.57596 37087 ft 502 kts 150°
2026-04-23 14:09 -11.14835 -77.54494 37091 ft 502 kts 150°
2026-04-23 14:09 -11.21145 -77.51389 37083 ft 503 kts 150°
2026-04-23 14:10 -11.27478 -77.48279 37086 ft 503 kts 150°
2026-04-23 14:10 -11.33780 -77.45184 37082 ft 503 kts 150°
2026-04-23 14:11 -11.40149 -77.42052 37074 ft 505 kts 150°
2026-04-23 14:11 -11.46494 -77.38930 37070 ft 504 kts 151°
2026-04-23 14:12 -11.52836 -77.35806 37055 ft 505 kts 151°
2026-04-23 14:12 -11.59185 -77.32679 37052 ft 505 kts 150°
2026-04-23 14:13 -11.65554 -77.29539 37042 ft 506 kts 150°
2026-04-23 14:13 -11.71900 -77.26410 37038 ft 506 kts 150°
2026-04-23 14:14 -11.78298 -77.23252 37023 ft 505 kts 150°
2026-04-23 14:14 -11.84666 -77.20110 37029 ft 506 kts 150°
2026-04-23 14:15 -11.91060 -77.16948 37025 ft 508 kts 150°
2026-04-23 14:15 -11.97437 -77.13796 37026 ft 508 kts 150°
2026-04-23 14:16 -12.03782 -77.10486 37027 ft 507 kts 147°
2026-04-23 14:16 -12.09708 -77.06648 37026 ft 504 kts 142°
2026-04-23 14:17 -12.15544 -77.02609 37023 ft 504 kts 142°
2026-04-23 14:17 -12.21404 -76.98546 37019 ft 505 kts 142°
2026-04-23 14:18 -12.27229 -76.94513 37028 ft 506 kts 142°
2026-04-23 14:18 -12.33116 -76.90439 37036 ft 506 kts 142°
2026-04-23 14:19 -12.38958 -76.86395 37035 ft 507 kts 142°
2026-04-23 14:19 -12.44813 -76.82342 37038 ft 507 kts 142°
2026-04-23 14:20 -12.50688 -76.78271 37039 ft 507 kts 142°
2026-04-23 14:20 -12.56569 -76.74194 37049 ft 507 kts 142°
2026-04-23 14:21 -12.62386 -76.70157 37056 ft 508 kts 142°
2026-04-23 14:21 -12.68286 -76.66017 37062 ft 506 kts 140°
2026-04-23 14:22 -12.73732 -76.61464 37065 ft 504 kts 134°
2026-04-23 14:22 -12.78613 -76.56322 37070 ft 501 kts 127°
2026-04-23 14:23 -12.82858 -76.50699 37074 ft 498 kts 121°
2026-04-23 14:23 -12.86804 -76.44858 37118 ft 498 kts 121°
2026-04-23 14:24 -12.90749 -76.39007 37176 ft 498 kts 121°
2026-04-23 14:24 -12.94692 -76.33146 37243 ft 498 kts 121°
2026-04-23 14:25 -12.98626 -76.27310 37271 ft 498 kts 121°
2026-04-23 14:25 -13.02581 -76.21446 37312 ft 499 kts 121°
2026-04-23 14:26 -13.06545 -76.15573 37346 ft 500 kts 121°
2026-04-23 14:26 -13.10510 -76.09694 37354 ft 500 kts 121°
2026-04-23 14:27 -13.14467 -76.03822 37359 ft 499 kts 121°
2026-04-23 14:27 -13.18427 -75.97941 37389 ft 499 kts 121°
2026-04-23 14:28 -13.22368 -75.92085 37386 ft 499 kts 121°
2026-04-23 14:28 -13.26332 -75.86188 37450 ft 500 kts 121°
2026-04-23 14:29 -13.30281 -75.80313 37531 ft 500 kts 121°
2026-04-23 14:29 -13.34222 -75.74444 37565 ft 500 kts 121°
2026-04-23 14:30 -13.38184 -75.68543 37607 ft 499 kts 121°
2026-04-23 14:30 -13.42116 -75.62682 37572 ft 499 kts 120°
2026-04-23 14:31 -13.46056 -75.56801 37566 ft 499 kts 120°
2026-04-23 14:31 -13.50022 -75.50879 37492 ft 500 kts 120°
2026-04-23 14:32 -13.53954 -75.45004 37537 ft 500 kts 121°
2026-04-23 14:32 -13.57887 -75.39122 37602 ft 500 kts 120°
2026-04-23 14:33 -13.61857 -75.33185 37671 ft 500 kts 120°
2026-04-23 14:33 -13.65783 -75.27304 37741 ft 499 kts 120°
2026-04-23 14:34 -13.69715 -75.21414 37800 ft 499 kts 120°
2026-04-23 14:34 -13.73645 -75.15517 37813 ft 499 kts 120°
2026-04-23 14:35 -13.77553 -75.09659 37843 ft 499 kts 120°
2026-04-23 14:35 -13.81507 -75.03724 37821 ft 500 kts 120°
2026-04-23 14:36 -13.85439 -74.97813 37781 ft 500 kts 120°
2026-04-23 14:36 -13.89362 -74.91914 37763 ft 500 kts 120°
2026-04-23 14:37 -13.93295 -74.85996 37775 ft 500 kts 120°
2026-04-23 14:37 -13.97210 -74.80103 37782 ft 500 kts 120°
2026-04-23 14:38 -14.01156 -74.74160 37811 ft 500 kts 120°
2026-04-23 14:38 -14.05073 -74.68252 37801 ft 500 kts 120°
2026-04-23 14:39 -14.08999 -74.62326 37793 ft 500 kts 120°
2026-04-23 14:39 -14.12938 -74.56379 37784 ft 501 kts 120°
2026-04-23 14:40 -14.16862 -74.50448 37784 ft 500 kts 120°
2026-04-23 14:40 -14.20790 -74.44509 37781 ft 501 kts 120°
2026-04-23 14:41 -14.24731 -74.38547 37775 ft 501 kts 120°
2026-04-23 14:41 -14.28671 -74.32577 37779 ft 501 kts 120°
2026-04-23 14:42 -14.32594 -74.26633 37783 ft 501 kts 121°
2026-04-23 14:42 -14.36528 -74.20670 37773 ft 502 kts 120°
2026-04-23 14:43 -14.40455 -74.14706 37776 ft 502 kts 120°
2026-04-23 14:43 -14.44371 -74.08759 37780 ft 501 kts 121°
2026-04-23 14:44 -14.48280 -74.02820 37775 ft 501 kts 121°
2026-04-23 14:44 -14.52201 -73.96855 37792 ft 502 kts 121°
2026-04-23 14:45 -14.56118 -73.90894 37787 ft 502 kts 121°
2026-04-23 14:45 -14.60052 -73.84900 37796 ft 503 kts 121°
2026-04-23 14:46 -14.63980 -73.78913 37811 ft 502 kts 121°
2026-04-23 14:46 -14.67897 -73.72935 37840 ft 502 kts 121°
2026-04-23 14:47 -14.71811 -73.66962 37850 ft 502 kts 121°
2026-04-23 14:47 -14.75725 -73.60980 37865 ft 502 kts 121°
2026-04-23 14:48 -14.79651 -73.54976 37873 ft 503 kts 121°
2026-04-23 14:48 -14.83555 -73.49002 37874 ft 504 kts 121°
2026-04-23 14:49 -14.87484 -73.42986 37897 ft 504 kts 121°
2026-04-23 14:49 -14.91398 -73.36990 37911 ft 504 kts 121°
2026-04-23 14:50 -14.95338 -73.30947 37945 ft 504 kts 121°
2026-04-23 14:50 -14.99241 -73.24957 37985 ft 504 kts 121°
2026-04-23 14:51 -15.03163 -73.18932 38003 ft 505 kts 121°
2026-04-23 14:51 -15.07088 -73.12900 38003 ft 505 kts 121°
2026-04-23 14:52 -15.11032 -73.06831 37980 ft 506 kts 121°
2026-04-23 14:52 -15.14947 -73.00802 37993 ft 506 kts 121°
2026-04-23 14:53 -15.18856 -72.94780 37950 ft 505 kts 121°
2026-04-23 14:53 -15.22780 -72.88731 37933 ft 505 kts 121°
2026-04-23 14:54 -15.26698 -72.82684 37945 ft 505 kts 121°
2026-04-23 14:54 -15.30628 -72.76616 37956 ft 507 kts 121°
2026-04-23 14:55 -15.34540 -72.70565 37988 ft 506 kts 121°
2026-04-23 14:55 -15.38463 -72.64496 37967 ft 507 kts 121°
2026-04-23 14:56 -15.42376 -72.58437 37980 ft 507 kts 121°
2026-04-23 14:56 -15.46306 -72.52351 37970 ft 507 kts 121°
2026-04-23 14:57 -15.50210 -72.46298 37967 ft 506 kts 121°
2026-04-23 14:57 -15.54129 -72.40214 37920 ft 506 kts 121°
2026-04-23 14:58 -15.58052 -72.34122 37866 ft 507 kts 121°
2026-04-23 14:58 -15.61952 -72.28061 37830 ft 507 kts 121°
2026-04-23 14:59 -15.65865 -72.21972 37771 ft 507 kts 121°
2026-04-23 14:59 -15.69767 -72.15897 37785 ft 507 kts 121°
2026-04-23 15:00 -15.73674 -72.09810 37809 ft 508 kts 121°
2026-04-23 15:00 -15.77595 -72.03693 37839 ft 507 kts 121°
2026-04-23 15:01 -15.81504 -71.97593 37856 ft 507 kts 121°
2026-04-23 15:01 -15.85417 -71.91483 37857 ft 506 kts 121°
2026-04-23 15:02 -15.89307 -71.85398 37864 ft 507 kts 121°
2026-04-23 15:02 -15.93208 -71.79289 37873 ft 507 kts 121°
2026-04-23 15:03 -15.97115 -71.73174 37866 ft 508 kts 121°
2026-04-23 15:03 -16.01016 -71.67060 37866 ft 508 kts 121°
2026-04-23 15:04 -16.04932 -71.60917 37859 ft 507 kts 121°
2026-04-23 15:04 -16.08815 -71.54820 37875 ft 506 kts 121°
2026-04-23 15:05 -16.12689 -71.48734 37819 ft 507 kts 121°
2026-04-23 15:05 -16.16587 -71.42602 37832 ft 507 kts 121°
2026-04-23 15:06 -16.20477 -71.36479 37830 ft 507 kts 121°
2026-04-23 15:06 -16.24366 -71.30353 37855 ft 507 kts 121°
2026-04-23 15:07 -16.28248 -71.24237 37905 ft 507 kts 121°
2026-04-23 15:07 -16.32129 -71.18111 37923 ft 506 kts 121°
2026-04-23 15:08 -16.36001 -71.11996 37934 ft 507 kts 121°
2026-04-23 15:09 -16.41835 -71.02772 37932 ft 507 kts 121°
2026-04-23 15:09 -16.45716 -70.96630 37943 ft 506 kts 121°
2026-04-23 15:10 -16.48939 -70.91524 37940 ft 506 kts 121°
2026-04-23 15:10 -16.53456 -70.84360 37926 ft 506 kts 121°
2026-04-23 15:11 -16.57311 -70.78245 37891 ft 507 kts 121°
2026-04-23 15:11 -16.61163 -70.72126 37870 ft 507 kts 121°
2026-04-23 15:12 -16.65042 -70.65958 37860 ft 507 kts 121°
2026-04-23 15:12 -16.68925 -70.59778 37881 ft 508 kts 121°
2026-04-23 15:13 -16.72788 -70.53629 37915 ft 508 kts 121°
2026-04-23 15:13 -16.76674 -70.47443 37965 ft 508 kts 121°
2026-04-23 15:14 -16.80526 -70.41302 37976 ft 508 kts 121°
2026-04-23 15:14 -16.84380 -70.35146 37984 ft 508 kts 121°
2026-04-23 15:15 -16.88281 -70.28909 37989 ft 508 kts 121°
2026-04-23 15:15 -16.92162 -70.22704 38003 ft 508 kts 121°
2026-04-23 15:16 -16.96038 -70.16499 38019 ft 508 kts 121°
2026-04-23 15:16 -16.99914 -70.10289 38045 ft 509 kts 121°
2026-04-23 15:17 -17.03812 -70.04040 38075 ft 509 kts 121°
2026-04-23 15:17 -17.07684 -69.97825 38076 ft 508 kts 120°
2026-04-23 15:18 -17.11539 -69.91629 38054 ft 508 kts 121°
2026-04-23 15:18 -17.15392 -69.85431 38052 ft 508 kts 121°
2026-04-23 15:19 -17.19251 -69.79218 38028 ft 510 kts 121°
2026-04-23 15:19 -17.23125 -69.72978 38004 ft 510 kts 121°
2026-04-23 15:20 -17.26338 -69.67796 37982 ft 510 kts 121°
2026-04-23 15:20 -17.30825 -69.60525 37967 ft 510 kts 120°
2026-04-23 15:21 -17.34602 -69.54212 37958 ft 511 kts 120°
2026-04-23 15:21 -17.38369 -69.47890 37950 ft 511 kts 120°
2026-04-23 15:22 -17.42126 -69.41596 37951 ft 510 kts 120°
2026-04-23 15:22 -17.45890 -69.35292 37949 ft 510 kts 120°
2026-04-23 15:23 -17.49688 -69.28973 37948 ft 511 kts 120°
2026-04-23 15:23 -17.53532 -69.22730 37950 ft 511 kts 121°
2026-04-23 15:24 -17.57411 -69.16431 37957 ft 512 kts 120°
2026-04-23 15:24 -17.61257 -69.10167 37975 ft 511 kts 121°
2026-04-23 15:25 -17.65088 -69.03918 37977 ft 512 kts 121°
2026-04-23 15:25 -17.68965 -68.97586 38000 ft 512 kts 121°
2026-04-23 15:26 -17.72825 -68.91277 38002 ft 513 kts 121°
2026-04-23 15:26 -17.76685 -68.84959 37988 ft 512 kts 120°
2026-04-23 15:27 -17.80537 -68.78649 37986 ft 513 kts 120°
2026-04-23 15:27 -17.84390 -68.72329 37980 ft 513 kts 121°
2026-04-23 15:28 -17.88255 -68.65986 37967 ft 513 kts 121°
2026-04-23 15:28 -17.92098 -68.59670 37975 ft 514 kts 121°
2026-04-23 15:29 -17.95936 -68.53359 37949 ft 513 kts 121°
2026-04-23 15:29 -17.99784 -68.47023 37932 ft 514 kts 121°
2026-04-23 15:30 -18.03652 -68.40651 37925 ft 515 kts 121°
2026-04-23 15:30 -18.07595 -68.34343 37911 ft 514 kts 122°
2026-04-23 15:31 -18.11593 -68.28084 37890 ft 514 kts 122°
2026-04-23 15:31 -18.15573 -68.21829 37887 ft 514 kts 122°
2026-04-23 15:32 -18.19538 -68.15578 37873 ft 514 kts 122°
2026-04-23 15:32 -18.23531 -68.09274 37868 ft 515 kts 122°
2026-04-23 15:33 -18.27484 -68.03024 37852 ft 515 kts 122°
2026-04-23 15:33 -18.31472 -67.96714 37844 ft 515 kts 122°
2026-04-23 15:34 -18.35424 -67.90452 37831 ft 515 kts 122°
2026-04-23 15:34 -18.39400 -67.84145 37832 ft 515 kts 122°
2026-04-23 15:35 -18.43366 -67.77849 37822 ft 515 kts 122°
2026-04-23 15:35 -18.47346 -67.71526 37829 ft 515 kts 122°
2026-04-23 15:36 -18.51282 -67.65267 37831 ft 515 kts 122°
2026-04-23 15:36 -18.55249 -67.58949 37828 ft 515 kts 122°
2026-04-23 15:37 -18.59185 -67.52679 37834 ft 515 kts 122°
2026-04-23 15:37 -18.62494 -67.47397 37827 ft 515 kts 122°
2026-04-23 15:38 -18.67076 -67.40047 37826 ft 514 kts 122°
2026-04-23 15:38 -18.71007 -67.33736 37823 ft 514 kts 121°
2026-04-23 15:39 -18.74964 -67.27374 37815 ft 515 kts 122°
2026-04-23 15:39 -18.78875 -67.21075 37815 ft 514 kts 122°
2026-04-23 15:40 -18.82805 -67.14746 37810 ft 514 kts 122°
2026-04-23 15:40 -18.86724 -67.08429 37801 ft 515 kts 122°
2026-04-23 15:41 -18.90673 -67.02055 37803 ft 515 kts 121°
2026-04-23 15:41 -18.94591 -66.95724 37800 ft 514 kts 121°
2026-04-23 15:42 -18.98507 -66.89388 37806 ft 514 kts 122°
2026-04-23 15:42 -19.02429 -66.83036 37816 ft 514 kts 122°
2026-04-23 15:43 -19.06355 -66.76675 37820 ft 515 kts 122°
2026-04-23 15:43 -19.10267 -66.70330 37819 ft 515 kts 122°
2026-04-23 15:44 -19.14211 -66.63924 37815 ft 516 kts 122°
2026-04-23 15:44 -19.18110 -66.57583 37820 ft 515 kts 122°
2026-04-23 15:45 -19.22029 -66.51205 37848 ft 515 kts 122°
2026-04-23 15:45 -19.25836 -66.45002 37876 ft 515 kts 122°
2026-04-23 15:46 -19.29735 -66.38641 37866 ft 515 kts 122°
2026-04-23 15:46 -19.33656 -66.32240 37860 ft 516 kts 121°
2026-04-23 15:47 -19.37580 -66.25827 37861 ft 516 kts 121°
2026-04-23 15:47 -19.41463 -66.19477 37862 ft 516 kts 122°
2026-04-23 15:48 -19.45433 -66.13040 37857 ft 517 kts 122°
2026-04-23 15:48 -19.49341 -66.06702 37850 ft 517 kts 122°
2026-04-23 15:49 -19.53304 -66.00291 37834 ft 517 kts 122°
2026-04-23 15:49 -19.57241 -65.93926 37807 ft 517 kts 122°
2026-04-23 15:50 -19.61209 -65.87498 37795 ft 518 kts 122°
2026-04-23 15:50 -19.65136 -65.81097 37781 ft 518 kts 121°
2026-04-23 15:51 -19.68964 -65.74659 37772 ft 518 kts 121°
2026-04-23 15:51 -19.72813 -65.68161 37768 ft 519 kts 121°
2026-04-23 15:52 -19.76674 -65.61655 37761 ft 519 kts 121°
2026-04-23 15:52 -19.80520 -65.55174 37748 ft 519 kts 121°
2026-04-23 15:53 -19.84374 -65.48683 37722 ft 519 kts 121°
2026-04-23 15:53 -19.88261 -65.42165 37716 ft 519 kts 121°
2026-04-23 15:54 -19.92124 -65.35681 37709 ft 520 kts 122°
2026-04-23 15:54 -19.96003 -65.29166 37703 ft 520 kts 121°
2026-04-23 15:55 -19.99856 -65.22681 37691 ft 520 kts 121°
2026-04-23 15:55 -20.03733 -65.16147 37686 ft 520 kts 121°
2026-04-23 15:56 -20.07597 -65.09628 37670 ft 520 kts 121°
2026-04-23 15:56 -20.11443 -65.03133 37655 ft 519 kts 121°
2026-04-23 15:57 -20.15321 -64.96581 37645 ft 519 kts 121°
2026-04-23 15:57 -20.19197 -64.90072 37622 ft 521 kts 121°
2026-04-23 15:58 -20.23091 -64.83536 37593 ft 521 kts 122°
2026-04-23 15:58 -20.26962 -64.77026 37563 ft 521 kts 122°
2026-04-23 15:59 -20.30853 -64.70472 37541 ft 520 kts 122°
2026-04-23 15:59 -20.34710 -64.63972 37500 ft 521 kts 122°
2026-04-23 16:00 -20.38608 -64.57424 37485 ft 522 kts 122°
2026-04-23 16:00 -20.42495 -64.50894 37424 ft 521 kts 122°
2026-04-23 16:01 -20.46376 -64.44360 37383 ft 520 kts 122°
2026-04-23 16:01 -20.50249 -64.37832 37347 ft 521 kts 122°
2026-04-23 16:02 -20.54103 -64.31332 37291 ft 521 kts 121°
2026-04-23 16:02 -20.58001 -64.24769 37248 ft 520 kts 122°
2026-04-23 16:03 -20.61890 -64.18225 37213 ft 522 kts 122°
2026-04-23 16:03 -20.65761 -64.11700 37204 ft 522 kts 122°
2026-04-23 16:04 -20.69681 -64.05140 37187 ft 522 kts 122°
2026-04-23 16:04 -20.73615 -63.98584 37173 ft 522 kts 122°
2026-04-23 16:05 -20.76885 -63.93122 37166 ft 523 kts 122°
2026-04-23 16:05 -20.81443 -63.85501 37160 ft 523 kts 122°
2026-04-23 16:06 -20.85362 -63.78937 37154 ft 523 kts 122°
2026-04-23 16:06 -20.89268 -63.72385 37153 ft 523 kts 122°
2026-04-23 16:07 -20.93175 -63.65825 37154 ft 523 kts 122°
2026-04-23 16:07 -20.97078 -63.59265 37158 ft 523 kts 122°
2026-04-23 16:08 -21.00996 -63.52671 37164 ft 523 kts 122°
2026-04-23 16:08 -21.04896 -63.46102 37157 ft 523 kts 122°
2026-04-23 16:09 -21.08794 -63.39525 37137 ft 523 kts 122°
2026-04-23 16:09 -21.12683 -63.32956 37124 ft 523 kts 122°
2026-04-23 16:10 -21.16591 -63.26347 37114 ft 524 kts 122°
2026-04-23 16:10 -21.20501 -63.19729 37110 ft 524 kts 122°
2026-04-23 16:11 -21.24395 -63.13131 37108 ft 524 kts 122°
2026-04-23 16:11 -21.28291 -63.06519 37104 ft 524 kts 122°
2026-04-23 16:12 -21.32204 -62.99911 37098 ft 524 kts 122°
2026-04-23 16:12 -21.36215 -62.93343 37095 ft 525 kts 123°
2026-04-23 16:13 -21.40218 -62.86798 37092 ft 526 kts 123°
2026-04-23 16:13 -21.46207 -62.76964 37086 ft 525 kts 123°
2026-04-23 16:14 -21.50182 -62.70419 37086 ft 525 kts 123°
2026-04-23 16:14 -21.54172 -62.63842 37082 ft 525 kts 123°
2026-04-23 16:15 -21.58175 -62.57234 37078 ft 525 kts 123°
2026-04-23 16:15 -21.62147 -62.50673 37078 ft 526 kts 123°
2026-04-23 16:16 -21.66126 -62.44087 37076 ft 525 kts 123°
2026-04-23 16:16 -21.70099 -62.37495 37074 ft 526 kts 123°
2026-04-23 16:17 -21.74094 -62.30861 37071 ft 527 kts 122°
2026-04-23 16:17 -21.78073 -62.24241 37072 ft 526 kts 123°
2026-04-23 16:18 -21.82034 -62.17645 37071 ft 525 kts 122°
2026-04-23 16:18 -21.85993 -62.11046 37068 ft 525 kts 123°
2026-04-23 16:19 -21.89945 -62.04451 37066 ft 526 kts 123°
2026-04-23 16:19 -21.93909 -61.97829 37065 ft 527 kts 123°
2026-04-23 16:20 -21.97875 -61.91193 37066 ft 527 kts 122°
2026-04-23 16:20 -22.01851 -61.84530 37065 ft 528 kts 123°
2026-04-23 16:21 -22.05823 -61.77868 37065 ft 527 kts 122°
2026-04-23 16:21 -22.09791 -61.71206 37071 ft 527 kts 123°
2026-04-23 16:22 -22.13738 -61.64566 37066 ft 526 kts 123°
2026-04-23 16:22 -22.17682 -61.57927 37049 ft 525 kts 123°
2026-04-23 16:23 -22.21619 -61.51295 37039 ft 526 kts 123°
2026-04-23 16:23 -22.25569 -61.44629 37040 ft 525 kts 123°
2026-04-23 16:24 -22.29512 -61.37966 37037 ft 525 kts 123°
2026-04-23 16:24 -22.33437 -61.31326 37034 ft 525 kts 122°
2026-04-23 16:25 -22.37355 -61.24685 37033 ft 526 kts 122°
2026-04-23 16:25 -22.41281 -61.18027 37033 ft 525 kts 122°
2026-04-23 16:26 -22.45226 -61.11329 37034 ft 525 kts 122°
2026-04-23 16:26 -22.49153 -61.04652 37031 ft 527 kts 122°
2026-04-23 16:27 -22.53070 -60.97984 37027 ft 526 kts 122°
2026-04-23 16:27 -22.57019 -60.91251 37025 ft 526 kts 122°
2026-04-23 16:28 -22.60935 -60.84564 37024 ft 526 kts 123°
2026-04-23 16:28 -22.64832 -60.77903 37025 ft 527 kts 123°
2026-04-23 16:29 -22.68760 -60.71182 37026 ft 526 kts 123°
2026-04-23 16:29 -22.72665 -60.64492 37022 ft 526 kts 123°
2026-04-23 16:30 -22.76583 -60.57771 37021 ft 527 kts 123°
2026-04-23 16:30 -22.80490 -60.51058 37021 ft 527 kts 123°
2026-04-23 16:31 -22.84380 -60.44369 37016 ft 527 kts 123°
2026-04-23 16:31 -22.88286 -60.37643 37020 ft 527 kts 123°
2026-04-23 16:32 -22.92127 -60.31016 37008 ft 506 kts 122°
2026-04-23 16:32 -22.96096 -60.24731 37016 ft 504 kts 128°
2026-04-23 16:33 -23.00660 -60.18988 37013 ft 503 kts 135°
2026-04-23 16:33 -23.05669 -60.13723 37011 ft 502 kts 138°
2026-04-23 16:34 -23.10729 -60.08519 37012 ft 502 kts 138°
2026-04-23 16:34 -23.15798 -60.03285 37007 ft 503 kts 138°
2026-04-23 16:35 -23.20891 -59.98000 37005 ft 504 kts 138°
2026-04-23 16:35 -23.25959 -59.92738 37011 ft 504 kts 138°
2026-04-23 16:36 -23.31065 -59.87423 37002 ft 504 kts 138°
2026-04-23 16:36 -23.36093 -59.82183 37001 ft 504 kts 138°
2026-04-23 16:37 -23.41171 -59.76889 37000 ft 504 kts 138°
2026-04-23 16:37 -23.46219 -59.71617 36636 ft 505 kts 138°
2026-04-23 16:38 -23.48790 -59.68930 36162 ft 502 kts 138°
2026-04-23 16:38 -23.51275 -59.66329 35599 ft 500 kts 138°
2026-04-23 16:38 -23.53819 -59.63667 35042 ft 498 kts 138°
2026-04-23 16:38 -23.56294 -59.61074 34492 ft 495 kts 139°
2026-04-23 16:39 -23.58769 -59.58483 33925 ft 494 kts 139°
2026-04-23 16:39 -23.61266 -59.55867 33333 ft 493 kts 139°
2026-04-23 16:39 -23.63705 -59.53311 32757 ft 491 kts 139°
2026-04-23 16:39 -23.66180 -59.50715 32183 ft 491 kts 139°
2026-04-23 16:40 -23.68657 -59.48117 31571 ft 492 kts 139°
2026-04-23 16:40 -23.71100 -59.45554 30970 ft 492 kts 139°
2026-04-23 16:40 -23.73572 -59.42958 30369 ft 492 kts 138°
2026-04-23 16:40 -23.76034 -59.40371 29846 ft 490 kts 138°
2026-04-23 16:41 -23.78511 -59.37765 29455 ft 485 kts 138°
2026-04-23 16:41 -23.80931 -59.35214 29064 ft 481 kts 138°
2026-04-23 16:41 -23.83324 -59.32694 28659 ft 477 kts 137°
2026-04-23 16:41 -23.85706 -59.30185 28260 ft 473 kts 137°
2026-04-23 16:42 -23.88072 -59.27690 27850 ft 471 kts 137°
2026-04-23 16:42 -23.90416 -59.25217 27453 ft 467 kts 137°
2026-04-23 16:42 -23.92729 -59.22777 27065 ft 464 kts 137°
2026-04-23 16:42 -23.95029 -59.20349 26676 ft 461 kts 137°
2026-04-23 16:43 -23.97341 -59.17907 26262 ft 459 kts 137°
2026-04-23 16:43 -23.99643 -59.15474 25849 ft 456 kts 137°
2026-04-23 16:43 -24.01905 -59.13083 25466 ft 453 kts 137°
2026-04-23 16:43 -24.04182 -59.10673 25060 ft 451 kts 136°
2026-04-23 16:44 -24.06447 -59.08275 24647 ft 449 kts 137°
2026-04-23 16:44 -24.08668 -59.05922 24244 ft 447 kts 136°
2026-04-23 16:44 -24.10893 -59.03565 23841 ft 444 kts 136°
2026-04-23 16:44 -24.13122 -59.01201 23443 ft 442 kts 136°
2026-04-23 16:45 -24.15332 -58.98855 23048 ft 439 kts 136°
2026-04-23 16:45 -24.17472 -58.96507 22644 ft 437 kts 131°
2026-04-23 16:45 -24.19270 -58.93814 22238 ft 435 kts 120°
2026-04-23 16:45 -24.20576 -58.90866 21842 ft 432 kts 109°
2026-04-23 16:46 -24.21572 -58.87768 21467 ft 429 kts 107°
2026-04-23 16:46 -24.22504 -58.84682 21086 ft 426 kts 107°
2026-04-23 16:46 -24.23427 -58.81614 20708 ft 424 kts 107°
2026-04-23 16:46 -24.24350 -58.78574 20341 ft 421 kts 107°
2026-04-23 16:47 -24.25274 -58.75557 19988 ft 417 kts 107°
2026-04-23 16:47 -24.26195 -58.72571 19653 ft 414 kts 107°
2026-04-23 16:47 -24.27116 -58.69592 19300 ft 411 kts 107°
2026-04-23 16:47 -24.28035 -58.66624 18944 ft 408 kts 108°
2026-04-23 16:48 -24.28948 -58.63676 18582 ft 405 kts 108°
2026-04-23 16:48 -24.29844 -58.60783 18223 ft 402 kts 108°
2026-04-23 16:48 -24.30742 -58.57882 17855 ft 399 kts 108°
2026-04-23 16:48 -24.31627 -58.55022 17495 ft 397 kts 108°
2026-04-23 16:49 -24.32226 -58.53085 17246 ft 395 kts 107°
2026-04-23 16:49 -24.33391 -58.49316 16759 ft 392 kts 108°
2026-04-23 16:49 -24.34259 -58.46502 16371 ft 390 kts 108°
2026-04-23 16:49 -24.35125 -58.43695 16007 ft 388 kts 107°
2026-04-23 16:50 -24.35988 -58.40898 15612 ft 386 kts 107°
2026-04-23 16:50 -24.36846 -58.38114 15220 ft 384 kts 107°
2026-04-23 16:50 -24.37692 -58.35362 14838 ft 382 kts 107°
2026-04-23 16:50 -24.38543 -58.32600 14455 ft 380 kts 107°
2026-04-23 16:51 -24.39390 -58.29847 14057 ft 379 kts 107°
2026-04-23 16:51 -24.40226 -58.27124 13668 ft 377 kts 107°
2026-04-23 16:51 -24.41060 -58.24406 13280 ft 375 kts 107°
2026-04-23 16:51 -24.41885 -58.21715 12901 ft 372 kts 107°
2026-04-23 16:52 -24.42704 -58.19043 12521 ft 370 kts 107°
2026-04-23 16:52 -24.43521 -58.16377 12149 ft 368 kts 107°
2026-04-23 16:52 -24.44336 -58.13718 11747 ft 366 kts 107°
2026-04-23 16:52 -24.45148 -58.11068 11339 ft 365 kts 107°
2026-04-23 16:53 -24.45947 -58.08454 10934 ft 364 kts 106°
2026-04-23 16:53 -24.46753 -58.05812 10533 ft 362 kts 106°
2026-04-23 16:53 -24.47542 -58.03233 10263 ft 355 kts 106°
2026-04-23 16:53 -24.48320 -58.00689 10100 ft 327 kts 106°
2026-04-23 16:54 -24.49013 -57.98426 10069 ft 301 kts 105°
2026-04-23 16:54 -24.49689 -57.96227 10044 ft 292 kts 108°
2026-04-23 16:54 -24.50696 -57.94276 9980 ft 289 kts 128°
2026-04-23 16:54 -24.52204 -57.92821 9935 ft 288 kts 144°
2026-04-23 16:55 -24.53877 -57.91605 9723 ft 290 kts 146°
2026-04-23 16:55 -24.55576 -57.90418 9427 ft 290 kts 146°
2026-04-23 16:55 -24.57293 -57.89214 9145 ft 290 kts 146°
2026-04-23 16:55 -24.58989 -57.88013 8870 ft 290 kts 146°
2026-04-23 16:56 -24.60693 -57.86796 8595 ft 289 kts 145°
2026-04-23 16:56 -24.62377 -57.85589 8333 ft 288 kts 145°
2026-04-23 16:56 -24.64060 -57.84379 8061 ft 288 kts 145°
2026-04-23 16:56 -24.65743 -57.83165 7803 ft 287 kts 145°
2026-04-23 16:57 -24.67396 -57.81972 7546 ft 286 kts 145°
2026-04-23 16:57 -24.69071 -57.80764 7289 ft 285 kts 145°
2026-04-23 16:57 -24.70713 -57.79577 7031 ft 284 kts 145°
2026-04-23 16:57 -24.72365 -57.78383 6781 ft 283 kts 145°
2026-04-23 16:58 -24.74013 -57.77192 6519 ft 282 kts 145°
2026-04-23 16:58 -24.75666 -57.75996 6267 ft 281 kts 145°
2026-04-23 16:58 -24.77307 -57.74810 6002 ft 281 kts 145°
2026-04-23 16:58 -24.78935 -57.73632 5742 ft 279 kts 144°
2026-04-23 16:59 -24.80549 -57.72464 5495 ft 278 kts 145°
2026-04-23 16:59 -24.82184 -57.71279 5246 ft 277 kts 144°
2026-04-23 16:59 -24.83787 -57.70119 4995 ft 276 kts 144°
2026-04-23 16:59 -24.85392 -57.68957 4753 ft 274 kts 144°
2026-04-23 17:00 -24.86978 -57.67807 4507 ft 273 kts 144°
2026-04-23 17:00 -24.88567 -57.66655 4264 ft 272 kts 144°
2026-04-23 17:00 -24.90144 -57.65510 4022 ft 269 kts 144°
2026-04-23 17:00 -24.91710 -57.64374 3778 ft 269 kts 144°
2026-04-23 17:01 -24.93259 -57.63249 3532 ft 268 kts 144°
2026-04-23 17:01 -24.94828 -57.62109 3285 ft 266 kts 145°
2026-04-23 17:01 -24.96374 -57.60987 3049 ft 265 kts 145°
2026-04-23 17:01 -24.97895 -57.59882 2961 ft 257 kts 145°
2026-04-23 17:02 -24.98879 -57.59168 2943 ft 248 kts 144°
2026-04-23 17:02 -25.00488 -57.57489 2906 ft 230 kts 123°
2026-04-23 17:02 -25.01365 -57.56038 2811 ft 222 kts 119°
2026-04-23 17:02 -25.02157 -57.54627 2742 ft 214 kts 118°
2026-04-23 17:03 -25.02929 -57.53256 2675 ft 203 kts 118°
2026-04-23 17:03 -25.03663 -57.51967 2607 ft 191 kts 118°
2026-04-23 17:03 -25.04349 -57.50774 2535 ft 180 kts 118°
2026-04-23 17:03 -25.05004 -57.49641 2474 ft 168 kts 119°
2026-04-23 17:04 -25.05610 -57.48597 2417 ft 154 kts 120°
2026-04-23 17:04 -25.06413 -57.47818 2240 ft 157 kts 161°
2026-04-23 17:04 -25.07485 -57.47803 2214 ft 158 kts 190°
2026-04-23 17:04 -25.08570 -57.48082 2244 ft 159 kts 195°
2026-04-23 17:05 -25.09646 -57.48392 2266 ft 159 kts 194°
2026-04-23 17:05 -25.10725 -57.48687 2289 ft 159 kts 194°
2026-04-23 17:05 -25.11801 -57.48962 2274 ft 160 kts 193°
2026-04-23 17:05 -25.12900 -57.49230 2086 ft 159 kts 192°
2026-04-23 17:06 -25.13979 -57.49490 1890 ft 158 kts 192°
2026-04-23 17:06 -25.15049 -57.49747 1694 ft 157 kts 192°
2026-04-23 17:06 -25.16114 -57.50004 1496 ft 155 kts 192°
2026-04-23 17:06 -25.17184 -57.50263 1296 ft 155 kts 191°
2026-04-23 17:07 -25.18234 -57.50518 1098 ft 153 kts 191°
2026-04-23 17:07 -25.19267 -57.50769 905 ft 151 kts 191°
2026-04-23 17:07 -25.20281 -57.51015 718 ft 150 kts 191°
2026-04-23 17:07 -25.21316 -57.51274 484 ft 149 kts 192°
2026-04-23 17:08 -25.22318 -57.51528 325 ft 148 kts 189°
2026-04-23 17:08 -25.23266 -57.51738 274 ft 106 kts 191°
2026-04-23 17:08 -25.23764 -57.51858 279 ft 59 kts 194°
2026-04-23 17:08 -25.24129 -57.51951 285 ft 38 kts 193°
2026-04-23 17:09 -25.24261 -57.51911 288 ft 13 kts 109°
2026-04-23 17:09 -25.24288 -57.51816 290 ft 12 kts 106°
2026-04-23 17:09 -25.24307 -57.51732 293 ft 10 kts 103°
2026-04-23 17:09 -25.24310 -57.51666 296 ft 7 kts 77°
2026-04-23 17:10 -25.24298 -57.51619 298 ft 4 kts 75°
2026-04-23 17:10 -25.24293 -57.51592 300 ft 2 kts 81°
2026-04-23 17:10 -25.24292 -57.51583 300 ft 0 kts 83°
2026-04-23 17:10 -25.24291 -57.51579 300 ft 1 kts 84°
2026-04-23 17:11 -25.24291 -57.51558 302 ft 4 kts 92°
2026-04-23 17:11 -25.24292 -57.51537 303 ft 1 kts 99°
2026-04-23 17:11 -25.24293 -57.51536 303 ft 0 kts 99°
2026-04-23 17:11 -25.24294 -57.51524 304 ft 0 kts 102°
2026-04-23 17:12 -25.24297 -57.51515 304 ft 1 kts 104°
2026-04-23 17:12 -25.24297 -57.51514 304 ft 0 kts 105°